Flag for United Kingdom

Past Weather in Burnley, England, United Kingdom — Yesterday and Last 2 Weeks

Now
60 °F

Cool.


Feels Like: 59 °F
Forecast: 72 / 57 °F
Wind: 8 mph from East

Location: Bingley

Current Time: Aug 9, 2020 at 10:08:32 pm

Latest Report: Aug 9, 2020 at 9:00 pm


Visibility: 7 mi

Pressure: 30.12 "Hg

Humidity: 87%

Dew Point: 56 °F

Location of BurnleyLocation

Past Weather in Burnley — Graph

°F

Burnley Temperature Yesterday

Maximum temperature yesterday: 71 °F (at 2:00 pm)
Minimum temperature yesterday: 54 °F (at 11:00 pm)
Average temperature yesterday: 62 °F

High & Low Weather Summary for the Past Weeks

 TemperatureHumidityPressure
High87 °F (Jul 31, 4:00 pm)100% (Aug 8, 7:00 am)30.27 "Hg (Aug 8, 7:00 am)
Low49 °F (Aug 4, 4:00 am)33% (Jul 31, 4:00 pm)29.38 "Hg (Jul 27, 3:00 pm)
Average59 °F82%29.93 "Hg
* Reported Jul 25 8:00 pm — Aug 9 8:00 pm, Burnley. Weather by CustomWeather, © 2020

Note: Actual official high and low records may vary slightly from our data, if they occured in-between our weather recording intervals... More about our weather records

Burnley Weather History for the Previous 24 Hours

Scroll right to see more
 ConditionsComfort  
Time TempWeatherWind HumidityBarometerVisibility
8:00 pm
Sun, Aug 9
62 °FCool.9 mph82%30.11 "Hg9 mi
7:00 pm64 °FMild.12 mph79%30.10 "Hg7 mi
6:00 pm66 °FMild.10 mph75%30.11 "Hg14 mi
5:00 pm67 °FMild.9 mph75%30.11 "Hg9 mi
4:00 pm66 °FMild.9 mph74%30.12 "Hg9 mi
3:00 pm68 °FMild.13 mph72%30.13 "Hg9 mi
2:00 pm66 °FMild.10 mph74%30.15 "Hg8 mi
1:00 pm63 °FMild.9 mph79%30.17 "Hg10 mi
12:00 pm61 °FCool.10 mph82%30.18 "Hg14 mi
11:00 am59 °FCool.8 mph89%30.20 "Hg8 mi
10:00 am57 °FCool.9 mph92%30.21 "Hg9 mi
9:00 am56 °FFog.8 mph95%30.22 "Hg6 mi
8:00 am55 °FFog.7 mph95%30.23 "Hg6 mi
7:00 am55 °FCool.7 mph96%30.23 "Hg7 mi
6:00 am54 °FCool.7 mph95%30.24 "Hg7 mi
5:00 am54 °FCool.7 mph95%30.24 "Hg7 mi
4:00 am55 °FCool.7 mph93%30.25 "Hg8 mi
3:00 am54 °FCool.7 mph93%30.25 "Hg9 mi
2:00 am54 °FCool.8 mph93%30.26 "Hg9 mi
1:00 am54 °FCool.7 mph92%30.27 "Hg9 mi
12:00 am54 °FCool.7 mph94%30.27 "Hg7 mi
11:00 pm
Sat, Aug 8
54 °FCool.7 mph93%30.27 "Hg9 mi
10:00 pm55 °FCool.7 mph89%30.27 "Hg15 mi
Weather by CustomWeather, © 2020

See weather overview